| time (UTC) | temp F | wind direction | speed knots | gust knots | rain 1hr in | rain 24hr in | rain mn in | humidity % | barometer mb |
| 20260510142101 | 64 | 350 | 4.3 | 8.7 | 0.00 | 0.00 | 0.00 | 64 | 1012.7 |
| 20260510141557 | 64 | 352 | 8.7 | 10.4 | 0.00 | 0.00 | 0.00 | 63 | 1012.5 |
| 20260510141056 | 64 | 13 | 7.8 | 9.6 | 0.00 | 0.00 | 0.00 | 64 | 1012.4 |
| 20260510140551 | 64 | 34 | 4.3 | 11.3 | 0.00 | 0.00 | 0.00 | 66 | 1012.5 |
| 20260510140051 | 64 | 335 | 7.8 | 11.3 | 0.00 | 0.00 | 0.00 | 64 | 1012.3 |
| 20260510135547 | 64 | 340 | 7.0 | 10.4 | 0.00 | 0.00 | 0.00 | 64 | 1012.1 |
| 20260510135043 | 64 | 4 | 4.3 | 12.2 | 0.00 | 0.00 | 0.00 | 65 | 1012.1 |
| 20260510134540 | 64 | 33 | 6.1 | 9.6 | 0.00 | 0.00 | 0.00 | 67 | 1012.2 |
| 20260510134037 | 63 | 354 | 4.3 | 11.3 | 0.00 | 0.00 | 0.00 | 68 | 1012.1 |
| 20260510133533 | 63 | 339 | 7.8 | 11.3 | 0.00 | 0.00 | 0.00 | 70 | 1012.1 |
| 20260510133029 | 63 | 36 | 7.8 | 7.8 | 0.00 | 0.00 | 0.00 | 72 | 1011.6 |
| 20260510132526 | 62 | 8 | 5.2 | 8.7 | 0.00 | 0.00 | 0.00 | 73 | 1011.7 |
| 20260510132023 | 62 | 19 | 3.5 | 11.3 | 0.00 | 0.00 | 0.00 | 74 | 1011.7 |
| 20260510131521 | 62 | 18 | 3.5 | 9.6 | 0.00 | 0.00 | 0.00 | 75 | 1011.7 |
| 20260510131018 | 62 | 345 | 11.3 | 13.0 | 0.00 | 0.00 | 0.00 | 74 | 1011.7 |
| 20260510130514 | 62 | 338 | 5.2 | 7.8 | 0.00 | 0.00 | 0.00 | 74 | 1011.7 |
| 20260510130012 | 62 | 10 | 3.5 | 7.0 | 0.00 | 0.00 | 0.00 | 75 | 1011.7 |
| 20260510125508 | 62 | 355 | 3.5 | 8.7 | 0.00 | 0.00 | 0.00 | 75 | 1011.5 |
| 20260510125004 | 61 | 317 | 4.3 | 10.4 | 0.00 | 0.00 | 0.00 | 76 | 1011.6 |
| 20260510124501 | 61 | 13 | 5.2 | 7.8 | 0.00 | 0.00 | 0.00 | 75 | 1011.5 |
| 20260510123958 | 61 | 355 | 3.5 | 7.8 | 0.00 | 0.00 | 0.00 | 75 | 1011.5 |
| 20260510123452 | 61 | 356 | 3.5 | 8.7 | 0.00 | 0.00 | 0.00 | 74 | 1011.3 |
| 20260510122949 | 61 | 348 | 1.7 | 7.8 | 0.00 | 0.00 | 0.00 | 75 | 1011.3 |
| 20260510122444 | 61 | 343 | 4.3 | 7.0 | 0.00 | 0.00 | 0.00 | 74 | 1011.3 |
| 20260510121941 | 61 | 356 | 2.6 | 4.3 | 0.00 | 0.00 | 0.00 | 74 | 1011.1 |
| 20260510121438 | 61 | 10 | 3.5 | 5.2 | 0.00 | 0.00 | 0.00 | 73 | 1011.2 |
| 20260510120936 | 60 | 356 | 3.5 | 6.1 | 0.00 | 0.00 | 0.00 | 74 | 1011.1 |
| 20260510120433 | 60 | 2 | 5.2 | 5.2 | 0.00 | 0.00 | 0.00 | 73 | 1010.9 |
| 20260510115929 | 60 | 342 | 5.2 | 5.2 | 0.00 | 0.00 | 0.00 | 72 | 1010.9 |
| 20260510115426 | 60 | 7 | 4.3 | 5.2 | 0.00 | 0.00 | 0.00 | 72 | 1010.9 |
| 20260510114921 | 60 | 11 | 3.5 | 4.3 | 0.00 | 0.00 | 0.00 | 72 | 1010.8 |
| 20260510114419 | 61 | 331 | 1.7 | 5.2 | 0.00 | 0.00 | 0.00 | 71 | 1010.8 |
| 20260510113914 | 61 | 335 | 2.6 | 5.2 | 0.00 | 0.00 | 0.00 | 70 | 1010.8 |
| 20260510113410 | 61 | 318 | 6.1 | 7.0 | 0.00 | 0.00 | 0.00 | 68 | 1010.5 |
| 20260510112908 | 61 | 357 | 3.5 | 4.3 | 0.00 | 0.00 | 0.00 | 68 | 1010.7 |
| 20260510112405 | 61 | 339 | 0.9 | 3.5 | 0.00 | 0.00 | 0.00 | 67 | 1010.5 |
| 20260510111901 | 61 | 224 | 0.0 | 0.9 | 0.00 | 0.00 | 0.00 | 65 | 1010.5 |
| 20260510111357 | 62 | 316 | 0.9 | 1.7 | 0.00 | 0.00 | 0.00 | 64 | 1010.5 |
| 20260510110852 | 62 | 220 | 0.0 | 3.5 | 0.00 | 0.00 | 0.00 | 62 | 1010.3 |
| 20260510110349 | 62 | 317 | 1.7 | 2.6 | 0.00 | 0.00 | 0.00 | 61 | 1010.2 |
| 20260510105845 | 62 | 333 | 0.0 | 3.5 | 0.00 | 0.00 | 0.00 | 62 | 1010.1 |
| 20260510105345 | 62 | 280 | 2.6 | 3.5 | 0.00 | 0.00 | 0.00 | 61 | 1010.0 |
| 20260510104841 | 62 | 215 | 0.9 | 1.7 | 0.00 | 0.00 | 0.00 | 60 | 1009.9 |
| 20260510104338 | 62 | 227 | 0.0 | 1.7 | 0.00 | 0.00 | 0.00 | 59 | 1009.8 |
| 20260510103834 | 62 | 6 | 0.0 | 1.7 | 0.00 | 0.00 | 0.00 | 62 | 1009.6 |
| 20260510103332 | 61 | 301 | 0.9 | 0.9 | 0.00 | 0.00 | 0.00 | 64 | 1009.8 |
| 20260510102827 | 62 | 335 | 1.7 | 1.7 | 0.00 | 0.00 | 0.00 | 66 | 1009.8 |
| 20260510102323 | 62 | 290 | 0.0 | 0.9 | 0.00 | 0.00 | 0.00 | 63 | 1009.9 |
| 20260510101820 | 62 | 89 | 0.0 | 0.9 | 0.00 | 0.00 | 0.00 | 61 | 1009.7 |
| 20260510101318 | 62 | 52 | 0.0 | 1.7 | 0.00 | 0.00 | 0.00 | 62 | 1009.9 |
| 20260510100814 | 62 | 4 | 2.6 | 2.6 | 0.00 | 0.00 | 0.00 | 64 | 1009.7 |
| 20260510100312 | 58 | 324 | 1.7 | 7.0 | 0.00 | 0.00 | 0.00 | 73 | 1009.7 |
| 20260510095807 | 58 | 41 | 0.0 | 0.9 | 0.00 | 0.00 | 0.00 | 79 | 1009.3 |
| 20260510095305 | 58 | 145 | 0.0 | 0.9 | 0.00 | 0.00 | 0.00 | 78 | 1009.3 |
| 20260510094802 | 57 | 341 | 0.9 | 1.7 | 0.00 | 0.00 | 0.00 | 75 | 1009.3 |
| 20260510094258 | 58 | 98 | 0.0 | 0.0 | 0.00 | 0.00 | 0.00 | 77 | 1009.2 |
| 20260510093753 | 58 | 107 | 0.0 | 0.9 | 0.00 | 0.00 | 0.00 | 76 | 1009.3 |
| 20260510093251 | 58 | 226 | 0.9 | 1.7 | 0.00 | 0.00 | 0.00 | 76 | 1009.1 |
| 20260510092747 | 58 | 299 | 0.0 | 1.7 | 0.00 | 0.00 | 0.00 | 74 | 1009.2 |
| 20260510092243 | 58 | 160 | 0.0 | 1.7 | 0.00 | 0.00 | 0.00 | 73 | 1009.0 |
| 20260510091739 | 58 | 198 | 0.9 | 1.7 | 0.00 | 0.00 | 0.00 | 72 | 1009.2 |
| 20260510091236 | 58 | 0 | 0.9 | 0.9 | 0.00 | 0.00 | 0.00 | 73 | 1008.9 |
| 20260510090732 | 58 | 112 | 0.0 | 0.0 | 0.00 | 0.00 | 0.00 | 72 | 1008.9 |
| 20260510090230 | 59 | 318 | 0.9 | 0.9 | 0.00 | 0.00 | 0.00 | 72 | 1009.0 |
| 20260510085725 | 59 | 173 | 0.0 | 0.9 | 0.00 | 0.00 | 0.00 | 70 | 1009.2 |
| 20260510085220 | 59 | 183 | 0.0 | 1.7 | 0.00 | 0.00 | 0.00 | 69 | 1009.2 |
| 20260510084716 | 60 | 37 | 0.0 | 0.9 | 0.00 | 0.00 | 0.00 | 68 | 1009.2 |
| 20260510084213 | 61 | 215 | 0.0 | 0.9 | 0.00 | 0.00 | 0.00 | 65 | 1009.3 |
| 20260510083710 | 61 | 224 | 0.0 | 0.0 | 0.00 | 0.00 | 0.00 | 65 | 1009.4 |
| 20260510083207 | 60 | 272 | 0.0 | 0.9 | 0.00 | 0.00 | 0.00 | 67 | 1009.3 |
| 20260510082702 | 59 | 346 | 0.0 | 0.9 | 0.00 | 0.00 | 0.00 | 69 | 1009.1 |
| 20260510082159 | 59 | 233 | 0.0 | 0.9 | 0.00 | 0.00 | 0.00 | 69 | 1009.1 |
| 20260510081653 | 59 | 322 | 0.0 | 0.0 | 0.00 | 0.00 | 0.00 | 69 | 1009.1 |
| 20260510081149 | 60 | 185 | 0.9 | 1.7 | 0.00 | 0.00 | 0.00 | 68 | 1009.2 |
| 20260510080648 | 60 | 32 | 0.0 | 0.9 | 0.00 | 0.00 | 0.00 | 68 | 1009.2 |
| 20260510080146 | 60 | 130 | 0.0 | 0.0 | 0.00 | 0.00 | 0.00 | 67 | 1008.9 |
| 20260510075642 | 60 | 22 | 0.0 | 1.7 | 0.00 | 0.00 | 0.00 | 65 | 1008.7 |
| 20260510075140 | 61 | 0 | 1.7 | 1.7 | 0.00 | 0.00 | 0.00 | 64 | 1008.7 |
| 20260510074637 | 61 | 193 | 1.7 | 1.7 | 0.00 | 0.00 | 0.00 | 64 | 1008.6 |
| 20260510074132 | 61 | 178 | 0.9 | 1.7 | 0.00 | 0.00 | 0.00 | 62 | 1008.8 |
| 20260510073629 | 62 | 17 | 0.0 | 2.6 | 0.00 | 0.00 | 0.00 | 62 | 1008.8 |
| 20260510073125 | 62 | 356 | 2.6 | 3.5 | 0.00 | 0.00 | 0.00 | 62 | 1008.7 |
| 20260510072622 | 62 | 42 | 0.0 | 1.7 | 0.00 | 0.00 | 0.00 | 62 | 1008.8 |
| 20260510072118 | 62 | 22 | 0.9 | 3.5 | 0.00 | 0.00 | 0.00 | 63 | 1008.6 |
| 20260510071614 | 61 | 133 | 0.0 | 6.1 | 0.00 | 0.00 | 0.00 | 63 | 1008.9 |
| 20260510071112 | 61 | 336 | 2.6 | 3.5 | 0.00 | 0.00 | 0.00 | 64 | 1008.7 |
| 20260510070609 | 61 | 353 | 1.7 | 1.7 | 0.00 | 0.00 | 0.00 | 64 | 1008.7 |
| 20260510070107 | 61 | 30 | 0.9 | 1.7 | 0.00 | 0.00 | 0.00 | 63 | 1008.6 |
| 20260510065602 | 61 | 235 | 0.0 | 3.5 | 0.00 | 0.00 | 0.00 | 64 | 1008.5 |
| 20260510065058 | 62 | 38 | 0.0 | 1.7 | 0.00 | 0.00 | 0.00 | 63 | 1008.6 |
| 20260510064555 | 61 | 249 | 0.0 | 1.7 | 0.00 | 0.00 | 0.00 | 63 | 1008.4 |
| 20260510064052 | 62 | 222 | 0.0 | 0.9 | 0.00 | 0.00 | 0.00 | 61 | 1008.4 |
| 20260510063549 | 62 | 89 | 0.0 | 1.7 | 0.00 | 0.00 | 0.00 | 61 | 1008.5 |
| 20260510063046 | 62 | 0 | 0.0 | 0.9 | 0.00 | 0.00 | 0.00 | 60 | 1008.6 |
| 20260510062542 | 63 | 159 | 0.9 | 2.6 | 0.00 | 0.00 | 0.00 | 60 | 1008.4 |
| 20260510062037 | 63 | 243 | 1.7 | 1.7 | 0.00 | 0.00 | 0.00 | 60 | 1008.6 |
| 20260510061534 | 63 | 190 | 1.7 | 1.7 | 0.00 | 0.00 | 0.00 | 59 | 1008.7 |
| 20260510061030 | 63 | 243 | 1.7 | 3.5 | 0.00 | 0.00 | 0.00 | 58 | 1008.7 |
| 20260510060527 | 63 | 252 | 3.5 | 3.5 | 0.00 | 0.00 | 0.00 | 59 | 1008.9 |
| 20260510060023 | 63 | 243 | 1.7 | 2.6 | 0.00 | 0.00 | 0.00 | 59 | 1008.7 |
| 20260510055519 | 63 | 214 | 0.0 | 2.6 | 0.00 | 0.00 | 0.00 | 59 | 1008.7 |
| 20260510055018 | 62 | 263 | 0.9 | 3.5 | 0.00 | 0.00 | 0.00 | 59 | 1008.6 |
| 20260510054513 | 62 | 129 | 0.0 | 0.9 | 0.00 | 0.00 | 0.00 | 59 | 1008.5 |
| 20260510054003 | 62 | 166 | 0.0 | 1.7 | 0.00 | 0.00 | 0.00 | 59 | 1008.5 |
| 20260510053502 | 62 | 241 | 0.0 | 1.7 | 0.00 | 0.00 | 0.00 | 60 | 1008.4 |
| 20260510053000 | 62 | 200 | 0.9 | 1.7 | 0.00 | 0.00 | 0.00 | 60 | 1008.7 |
| 20260510052456 | 62 | 19 | 0.9 | 1.7 | 0.00 | 0.00 | 0.00 | 59 | 1008.3 |
| 20260510051953 | 63 | 40 | 1.7 | 1.7 | 0.00 | 0.00 | 0.00 | 58 | 1008.8 |
| 20260510051448 | 63 | 289 | 0.0 | 0.9 | 0.00 | 0.00 | 0.00 | 57 | 1008.8 |
| 20260510050944 | 63 | 210 | 0.0 | 0.0 | 0.00 | 0.00 | 0.00 | 57 | 1008.8 |
| 20260510050442 | 63 | 204 | 1.7 | 1.7 | 0.00 | 0.00 | 0.00 | 57 | 1008.6 |
| 20260510045939 | 64 | 239 | 0.9 | 2.6 | 0.00 | 0.00 | 0.00 | 58 | 1008.6 |
| 20260510045436 | 63 | 207 | 2.6 | 3.5 | 0.00 | 0.00 | 0.00 | 59 | 1008.4 |
| 20260510044933 | 62 | 230 | 1.7 | 3.5 | 0.00 | 0.00 | 0.00 | 58 | 1008.3 |
| 20260510044430 | 61 | 209 | 0.9 | 2.6 | 0.00 | 0.00 | 0.00 | 60 | 1008.1 |
| 20260510043926 | 62 | 174 | 0.0 | 0.9 | 0.00 | 0.00 | 0.00 | 60 | 1008.1 |
| 20260510043422 | 61 | 10 | 0.0 | 0.0 | 0.00 | 0.00 | 0.00 | 60 | 1008.1 |
| 20260510042921 | 61 | 193 | 0.0 | 1.7 | 0.00 | 0.00 | 0.00 | 62 | 1008.1 |
| 20260510042416 | 60 | 203 | 0.0 | 0.9 | 0.00 | 0.00 | 0.00 | 61 | 1008.1 |
| 20260510041912 | 60 | 309 | 0.0 | 0.9 | 0.00 | 0.00 | 0.00 | 64 | 1008.1 |
| 20260510041409 | 60 | 69 | 0.0 | 0.0 | 0.00 | 0.00 | 0.00 | 65 | 1008.0 |
| 20260510040907 | 60 | 6 | 0.0 | 0.9 | 0.00 | 0.00 | 0.00 | 66 | 1008.1 |
| 20260510040404 | 60 | 23 | 0.9 | 1.7 | 0.00 | 0.00 | 0.00 | 63 | 1008.4 |
| 20260510035859 | 61 | 121 | 0.0 | 1.7 | 0.00 | 0.00 | 0.00 | 67 | 1008.1 |
| 20260510035355 | 61 | 235 | 0.0 | 1.7 | 0.00 | 0.00 | 0.00 | 64 | 1008.0 |
| 20260510034851 | 60 | 297 | 0.0 | 1.7 | 0.00 | 0.00 | 0.00 | 64 | 1007.8 |
| 20260510034349 | 60 | 217 | 0.0 | 0.0 | 0.00 | 0.00 | 0.00 | 65 | 1007.8 |
| 20260510033845 | 60 | 193 | 0.0 | 0.9 | 0.00 | 0.00 | 0.00 | 63 | 1007.5 |
| 20260510033342 | 60 | 336 | 0.0 | 0.0 | 0.00 | 0.00 | 0.00 | 63 | 1007.6 |
| 20260510032838 | 61 | 336 | 0.0 | 0.0 | 0.00 | 0.00 | 0.00 | 63 | 1007.7 |
| 20260510032335 | 61 | 180 | 0.0 | 0.0 | 0.00 | 0.00 | 0.00 | 64 | 1007.7 |
| 20260510031831 | 61 | 315 | 0.0 | 0.0 | 0.00 | 0.00 | 0.00 | 64 | 1007.7 |
| 20260510031327 | 61 | 315 | 0.0 | 0.0 | 0.00 | 0.00 | 0.00 | 64 | 1007.6 |
| 20260510030826 | 62 | 315 | 0.0 | 0.0 | 0.00 | 0.00 | 0.00 | 63 | 1007.6 |
| 20260510030323 | 61 | 315 | 0.0 | 0.0 | 0.00 | 0.00 | 0.00 | 64 | 1007.5 |
| 20260510025820 | 61 | 230 | 0.0 | 0.0 | 0.00 | 0.00 | 0.00 | 64 | 1007.5 |
| 20260510025318 | 62 | 336 | 0.0 | 0.0 | 0.00 | 0.00 | 0.00 | 65 | 1007.4 |
| 20260510024814 | 62 | 336 | 0.0 | 0.0 | 0.00 | 0.00 | 0.00 | 64 | 1007.3 |
| 20260510024311 | 62 | 336 | 0.0 | 0.0 | 0.00 | 0.00 | 0.00 | 64 | 1007.2 |
| 20260510023808 | 62 | 324 | 0.0 | 0.9 | 0.00 | 0.00 | 0.00 | 65 | 1007.2 |
| 20260510023304 | 62 | 230 | 0.0 | 0.0 | 0.00 | 0.00 | 0.00 | 65 | 1007.0 |
| 20260510022801 | 62 | 221 | 0.0 | 0.9 | 0.00 | 0.00 | 0.00 | 64 | 1007.1 |
| 20260510022300 | 62 | 243 | 0.0 | 0.0 | 0.00 | 0.00 | 0.00 | 65 | 1006.9 |
| 20260510021800 | 62 | 235 | 0.0 | 0.0 | 0.00 | 0.00 | 0.00 | 67 | 1006.8 |
| 20260510021258 | 62 | 199 | 0.9 | 0.9 | 0.00 | 0.00 | 0.00 | 62 | 1006.7 |
| 20260510020754 | 63 | 44 | 0.0 | 0.0 | 0.00 | 0.00 | 0.00 | 61 | 1006.7 |
| 20260510020254 | 63 | 336 | 0.0 | 0.0 | 0.00 | 0.00 | 0.00 | 60 | 1006.5 |
| 20260510015750 | 64 | 218 | 0.0 | 1.7 | 0.00 | 0.00 | 0.00 | 60 | 1006.5 |
| 20260510015247 | 64 | 212 | 0.0 | 0.0 | 0.00 | 0.00 | 0.00 | 59 | 1006.4 |
| 20260510014741 | 64 | 212 | 0.0 | 0.0 | 0.00 | 0.00 | 0.00 | 58 | 1006.2 |
| 20260510014239 | 64 | 37 | 0.0 | 0.0 | 0.00 | 0.00 | 0.00 | 58 | 1006.3 |
| 20260510013735 | 65 | 37 | 0.0 | 0.0 | 0.00 | 0.00 | 0.00 | 57 | 1006.2 |
| 20260510013230 | 65 | 256 | 0.0 | 0.0 | 0.00 | 0.00 | 0.00 | 56 | 1006.1 |
| 20260510012725 | 65 | 256 | 0.0 | 0.0 | 0.00 | 0.00 | 0.00 | 56 | 1006.2 |
| 20260510012220 | 65 | 322 | 0.0 | 0.0 | 0.00 | 0.00 | 0.00 | 57 | 1006.1 |
| 20260510011720 | 66 | 37 | 0.0 | 0.0 | 0.00 | 0.00 | 0.00 | 56 | 1005.9 |
| 20260510011216 | 67 | 13 | 0.0 | 0.0 | 0.00 | 0.00 | 0.00 | 54 | 1006.0 |
| 20260510010713 | 67 | 5 | 0.0 | 1.7 | 0.00 | 0.00 | 0.00 | 53 | 1005.7 |
| 20260510010209 | 68 | 186 | 0.0 | 0.0 | 0.00 | 0.00 | 0.00 | 53 | 1005.9 |
| 20260510005706 | 68 | 230 | 0.0 | 0.0 | 0.00 | 0.00 | 0.00 | 55 | 1005.9 |
| 20260510005203 | 68 | 352 | 0.0 | 1.7 | 0.00 | 0.00 | 0.00 | 57 | 1005.7 |
| 20260510004702 | 68 | 6 | 1.7 | 1.7 | 0.00 | 0.00 | 0.00 | 56 | 1005.6 |
| 20260510004159 | 69 | 189 | 0.0 | 1.7 | 0.00 | 0.00 | 0.00 | 62 | 1005.4 |
| 20260510003656 | 71 | 164 | 0.0 | 0.0 | 0.00 | 0.00 | 0.00 | 52 | 1005.6 |
| 20260510003152 | 72 | 164 | 0.0 | 0.0 | 0.00 | 0.00 | 0.00 | 46 | 1005.6 |
| 20260510002651 | 72 | 235 | 0.0 | 0.0 | 0.00 | 0.00 | 0.00 | 44 | 1005.4 |
| 20260510002149 | 73 | 256 | 0.0 | 0.9 | 0.00 | 0.00 | 0.00 | 42 | 1005.6 |
| 20260510001646 | 75 | 217 | 0.0 | 0.0 | 0.00 | 0.00 | 0.00 | 39 | 1005.6 |
| 20260510001144 | 76 | 210 | 0.0 | 0.9 | 0.00 | 0.00 | 0.00 | 36 | 1005.3 |
| 20260510000644 | 78 | 50 | 0.0 | 0.0 | 0.00 | 0.00 | 0.00 | 40 | 1005.6 |
| 20260510000142 | 81 | 185 | 0.0 | 0.0 | 0.00 | 0.00 | 0.00 | 32 | 1005.3 |
| 20260509235638 | 81 | 124 | 0.0 | 0.0 | 0.00 | 0.00 | 0.00 | 31 | 1005.4 |
| 20260509235135 | 82 | 242 | 0.0 | 0.0 | 0.00 | 0.00 | 0.00 | 27 | 1005.3 |
| 20260509234631 | 83 | 256 | 0.0 | 0.9 | 0.00 | 0.00 | 0.00 | 26 | 1005.4 |
| 20260509234129 | 83 | 129 | 0.0 | 0.9 | 0.00 | 0.00 | 0.00 | 25 | 1005.1 |
| 20260509233626 | 83 | 218 | 0.0 | 1.7 | 0.00 | 0.00 | 0.00 | 29 | 1005.3 |
| 20260509233124 | 82 | 352 | 0.0 | 0.9 | 0.00 | 0.00 | 0.00 | 26 | 1005.3 |
| 20260509232620 | 82 | 297 | 0.9 | 2.6 | 0.00 | 0.00 | 0.00 | 28 | 1005.3 |
| 20260509232117 | 82 | 330 | 0.9 | 2.6 | 0.00 | 0.00 | 0.00 | 27 | 1005.3 |
| 20260509231613 | 85 | 44 | 0.0 | 0.9 | 0.00 | 0.00 | 0.00 | 24 | 1005.2 |
| 20260509231111 | 85 | 243 | 0.0 | 1.7 | 0.00 | 0.00 | 0.00 | 29 | 1005.2 |
| 20260509230608 | 83 | 278 | 1.7 | 4.3 | 0.00 | 0.00 | 0.00 | 25 | 1005.4 |
| 20260509230105 | 82 | 220 | 1.7 | 3.5 | 0.00 | 0.00 | 0.00 | 24 | 1005.4 |
| 20260509225600 | 83 | 286 | 0.9 | 3.5 | 0.00 | 0.00 | 0.00 | 23 | 1005.3 |
| 20260509225056 | 83 | 225 | 1.7 | 2.6 | 0.00 | 0.00 | 0.00 | 27 | 1005.3 |
| 20260509224551 | 83 | 263 | 1.7 | 4.3 | 0.00 | 0.00 | 0.00 | 27 | 1005.2 |
| 20260509224049 | 82 | 239 | 2.6 | 3.5 | 0.00 | 0.00 | 0.00 | 27 | 1005.2 |
| 20260509223546 | 82 | 275 | 2.6 | 4.3 | 0.00 | 0.00 | 0.00 | 26 | 1005.1 |
| 20260509223044 | 82 | 255 | 2.6 | 3.5 | 0.00 | 0.00 | 0.00 | 33 | 1005.1 |
| 20260509222539 | 82 | 223 | 3.5 | 5.2 | 0.00 | 0.00 | 0.00 | 24 | 1005.2 |
| 20260509222036 | 81 | 271 | 3.5 | 5.2 | 0.00 | 0.00 | 0.00 | 25 | 1005.2 |
| 20260509221531 | 82 | 332 | 4.3 | 4.3 | 0.00 | 0.00 | 0.00 | 26 | 1005.1 |
| 20260509221027 | 81 | 217 | 3.5 | 6.1 | 0.00 | 0.00 | 0.00 | 22 | 1005.1 |
| 20260509220523 | 81 | 219 | 3.5 | 7.8 | 0.00 | 0.00 | 0.00 | 23 | 1005.0 |
| 20260509220020 | 81 | 209 | 1.7 | 3.5 | 0.00 | 0.00 | 0.00 | 26 | 1005.1 |
| 20260509215515 | 80 | 325 | 2.6 | 4.3 | 0.00 | 0.00 | 0.00 | 25 | 1005.2 |
| 20260509215013 | 81 | 315 | 7.0 | 7.0 | 0.00 | 0.00 | 0.00 | 26 | 1005.0 |
| 20260509214510 | 81 | 308 | 4.3 | 7.8 | 0.00 | 0.00 | 0.00 | 24 | 1005.1 |
| 20260509214007 | 81 | 309 | 3.5 | 6.1 | 0.00 | 0.00 | 0.00 | 28 | 1005.2 |
| 20260509213502 | 82 | 286 | 2.6 | 3.5 | 0.00 | 0.00 | 0.00 | 25 | 1005.2 |
| 20260509213000 | 81 | 213 | 1.7 | 1.7 | 0.00 | 0.00 | 0.00 | 26 | 1005.1 |
| 20260509212457 | 80 | 234 | 2.6 | 5.2 | 0.00 | 0.00 | 0.00 | 26 | 1004.9 |
| 20260509211953 | 80 | 317 | 4.3 | 6.1 | 0.00 | 0.00 | 0.00 | 25 | 1005.1 |
| 20260509211449 | 80 | 348 | 5.2 | 7.0 | 0.00 | 0.00 | 0.00 | 24 | 1005.2 |
| 20260509210945 | 80 | 311 | 5.2 | 7.0 | 0.00 | 0.00 | 0.00 | 26 | 1005.0 |
| 20260509210442 | 81 | 345 | 2.6 | 6.1 | 0.00 | 0.00 | 0.00 | 25 | 1005.2 |
| 20260509205938 | 82 | 273 | 2.6 | 7.8 | 0.00 | 0.00 | 0.00 | 25 | 1005.2 |
| 20260509205433 | 82 | 261 | 3.5 | 4.3 | 0.00 | 0.00 | 0.00 | 26 | 1005.3 |
| 20260509204929 | 81 | 210 | 2.6 | 4.3 | 0.00 | 0.00 | 0.00 | 24 | 1005.4 |
| 20260509204425 | 81 | 238 | 2.6 | 5.2 | 0.00 | 0.00 | 0.00 | 28 | 1005.3 |
| 20260509203922 | 82 | 234 | 5.2 | 9.6 | 0.00 | 0.00 | 0.00 | 27 | 1005.4 |
| 20260509203418 | 81 | 242 | 2.6 | 5.2 | 0.00 | 0.00 | 0.00 | 30 | 1005.6 |
| 20260509202916 | 80 | 239 | 1.7 | 7.0 | 0.00 | 0.00 | 0.00 | 26 | 1005.8 |
| 20260509202411 | 80 | 324 | 2.6 | 7.8 | 0.00 | 0.00 | 0.00 | 24 | 1005.7 |
| 20260509201906 | 80 | 289 | 3.5 | 7.0 | 0.00 | 0.00 | 0.00 | 25 | 1005.8 |
| 20260509201402 | 80 | 272 | 3.5 | 7.0 | 0.00 | 0.00 | 0.00 | 24 | 1005.8 |
| 20260509200900 | 81 | 276 | 3.5 | 10.4 | 0.00 | 0.00 | 0.00 | 27 | 1006.0 |
| 20260509200359 | 81 | 240 | 3.5 | 6.1 | 0.00 | 0.00 | 0.00 | 30 | 1005.9 |
| 20260509195857 | 81 | 353 | 2.6 | 4.3 | 0.00 | 0.00 | 0.00 | 27 | 1005.9 |
| 20260509195356 | 80 | 187 | 1.7 | 5.2 | 0.00 | 0.00 | 0.00 | 28 | 1005.8 |
| 20260509194856 | 79 | 325 | 5.2 | 5.2 | 0.00 | 0.00 | 0.00 | 26 | 1006.1 |
| 20260509194353 | 80 | 247 | 0.9 | 2.6 | 0.00 | 0.00 | 0.00 | 27 | 1006.1 |
| 20260509193849 | 79 | 211 | 3.5 | 6.1 | 0.00 | 0.00 | 0.00 | 26 | 1006.1 |
| 20260509193350 | 81 | 232 | 9.6 | 9.6 | 0.00 | 0.00 | 0.00 | 28 | 1006.2 |
| 20260509192846 | 80 | 267 | 1.7 | 6.1 | 0.00 | 0.00 | 0.00 | 27 | 1006.1 |
| 20260509192342 | 80 | 256 | 0.9 | 2.6 | 0.00 | 0.00 | 0.00 | 29 | 1006.0 |
| 20260509191838 | 80 | 312 | 3.5 | 7.8 | 0.00 | 0.00 | 0.00 | 35 | 1006.2 |
| 20260509191333 | 79 | 231 | 6.1 | 8.7 | 0.00 | 0.00 | 0.00 | 27 | 1005.9 |
| 20260509190830 | 79 | 232 | 3.5 | 7.0 | 0.00 | 0.00 | 0.00 | 28 | 1006.2 |
| 20260509190327 | 80 | 308 | 10.4 | 10.4 | 0.00 | 0.00 | 0.00 | 28 | 1006.2 |
| 20260509185824 | 79 | 278 | 1.7 | 7.0 | 0.00 | 0.00 | 0.00 | 34 | 1006.2 |
| 20260509185320 | 79 | 265 | 1.7 | 5.2 | 0.00 | 0.00 | 0.00 | 27 | 1005.9 |
| 20260509184818 | 79 | 256 | 3.5 | 6.1 | 0.00 | 0.00 | 0.00 | 32 | 1006.0 |
| 20260509184315 | 79 | 205 | 1.7 | 13.0 | 0.00 | 0.00 | 0.00 | 32 | 1006.1 |
| 20260509183812 | 79 | 233 | 5.2 | 7.8 | 0.00 | 0.00 | 0.00 | 28 | 1006.1 |
| 20260509183307 | 79 | 295 | 4.3 | 4.3 | 0.00 | 0.00 | 0.00 | 33 | 1006.1 |
| 20260509182803 | 80 | 248 | 3.5 | 7.0 | 0.00 | 0.00 | 0.00 | 25 | 1006.1 |
| 20260509182300 | 79 | 260 | 4.3 | 5.2 | 0.00 | 0.00 | 0.00 | 34 | 1006.3 |
| 20260509181757 | 79 | 293 | 2.6 | 5.2 | 0.00 | 0.00 | 0.00 | 31 | 1006.0 |
| 20260509181254 | 79 | 297 | 4.3 | 10.4 | 0.00 | 0.00 | 0.00 | 25 | 1005.9 |
| 20260509180752 | 79 | 273 | 0.9 | 3.5 | 0.00 | 0.00 | 0.00 | 28 | 1006.1 |
| 20260509180248 | 79 | 222 | 6.1 | 7.8 | 0.00 | 0.00 | 0.00 | 27 | 1006.0 |
| 20260509175744 | 79 | 238 | 2.6 | 7.0 | 0.00 | 0.00 | 0.00 | 27 | 1006.1 |
| 20260509175241 | 78 | 287 | 3.5 | 4.3 | 0.00 | 0.00 | 0.00 | 31 | 1006.2 |
| 20260509174737 | 78 | 209 | 3.5 | 10.4 | 0.00 | 0.00 | 0.00 | 28 | 1006.2 |
| 20260509174232 | 78 | 244 | 7.8 | 9.6 | 0.00 | 0.00 | 0.00 | 26 | 1006.1 |
| 20260509173729 | 78 | 318 | 4.3 | 5.2 | 0.00 | 0.00 | 0.00 | 29 | 1006.0 |
| 20260509173224 | 78 | 291 | 5.2 | 7.8 | 0.00 | 0.00 | 0.00 | 31 | 1006.3 |
| 20260509172721 | 78 | 283 | 1.7 | 4.3 | 0.00 | 0.00 | 0.00 | 30 | 1006.3 |
| 20260509172217 | 77 | 1 | 0.9 | 5.2 | 0.00 | 0.00 | 0.00 | 34 | 1006.3 |
| 20260509171713 | 78 | 265 | 3.5 | 5.2 | 0.00 | 0.00 | 0.00 | 32 | 1006.3 |
| 20260509171209 | 78 | 198 | 3.5 | 5.2 | 0.00 | 0.00 | 0.00 | 36 | 1006.3 |
| 20260509170706 | 78 | 253 | 2.6 | 7.0 | 0.00 | 0.00 | 0.00 | 33 | 1006.3 |
| 20260509170202 | 77 | 207 | 2.6 | 7.0 | 0.00 | 0.00 | 0.00 | 39 | 1006.3 |
| 20260509165701 | 77 | 211 | 3.5 | 5.2 | 0.00 | 0.00 | 0.00 | 35 | 1006.3 |
| 20260509165156 | 76 | 328 | 4.3 | 5.2 | 0.00 | 0.00 | 0.00 | 34 | 1006.5 |
| 20260509164652 | 76 | 333 | 1.7 | 6.1 | 0.00 | 0.00 | 0.00 | 40 | 1006.3 |
| 20260509164148 | 77 | 194 | 5.2 | 6.1 | 0.00 | 0.00 | 0.00 | 44 | 1006.3 |
| 20260509163646 | 76 | 199 | 7.8 | 8.7 | 0.00 | 0.00 | 0.00 | 40 | 1006.2 |
| 20260509163142 | 76 | 203 | 1.7 | 6.1 | 0.00 | 0.00 | 0.00 | 48 | 1006.4 |
| 20260509162639 | 76 | 198 | 7.0 | 8.7 | 0.00 | 0.00 | 0.00 | 42 | 1006.3 |
| 20260509162134 | 77 | 181 | 1.7 | 4.3 | 0.00 | 0.00 | 0.00 | 46 | 1006.4 |
| 20260509161631 | 76 | 219 | 3.5 | 5.2 | 0.00 | 0.00 | 0.00 | 43 | 1006.5 |
| 20260509161126 | 75 | 221 | 1.7 | 3.5 | 0.00 | 0.00 | 0.00 | 40 | 1006.4 |
| 20260509160622 | 75 | 222 | 7.8 | 8.7 | 0.00 | 0.00 | 0.00 | 45 | 1006.3 |
| 20260509160118 | 74 | 189 | 4.3 | 7.8 | 0.00 | 0.00 | 0.00 | 44 | 1006.3 |
| 20260509155614 | 75 | 238 | 3.5 | 8.7 | 0.00 | 0.00 | 0.00 | 44 | 1006.3 |
| 20260509155110 | 75 | 211 | 2.6 | 6.1 | 0.00 | 0.00 | 0.00 | 41 | 1006.3 |
| 20260509154606 | 75 | 240 | 7.0 | 7.8 | 0.00 | 0.00 | 0.00 | 44 | 1006.4 |
| 20260509154104 | 75 | 215 | 3.5 | 4.3 | 0.00 | 0.00 | 0.00 | 48 | 1006.4 |
| 20260509153601 | 74 | 234 | 2.6 | 3.5 | 0.00 | 0.00 | 0.00 | 48 | 1006.4 |
| 20260509153058 | 74 | 240 | 2.6 | 4.3 | 0.00 | 0.00 | 0.00 | 48 | 1006.4 |
| 20260509152553 | 73 | 294 | 1.7 | 4.3 | 0.00 | 0.00 | 0.00 | 47 | 1006.5 |
| 20260509152051 | 74 | 210 | 4.3 | 6.1 | 0.00 | 0.00 | 0.00 | 46 | 1006.3 |
| 20260509151547 | 74 | 17 | 0.0 | 4.3 | 0.00 | 0.00 | 0.00 | 46 | 1006.4 |
| 20260509151045 | 74 | 219 | 0.9 | 5.2 | 0.00 | 0.00 | 0.00 | 49 | 1006.2 |
| 20260509150542 | 74 | 215 | 5.2 | 5.2 | 0.00 | 0.00 | 0.00 | 51 | 1006.4 |
| 20260509150041 | 73 | 225 | 2.6 | 4.3 | 0.00 | 0.00 | 0.00 | 58 | 1006.2 |
| 20260509145536 | 73 | 225 | 1.7 | 4.3 | 0.00 | 0.00 | 0.00 | 55 | 1006.2 |
| 20260509145031 | 72 | 296 | 0.0 | 3.5 | 0.00 | 0.00 | 0.00 | 53 | 1006.2 |
| 20260509144528 | 71 | 245 | 1.7 | 5.2 | 0.00 | 0.00 | 0.00 | 55 | 1006.4 |
| 20260509144026 | 71 | 331 | 5.2 | 5.2 | 0.00 | 0.00 | 0.00 | 54 | 1006.3 |
| 20260509143522 | 70 | 226 | 1.7 | 6.1 | 0.00 | 0.00 | 0.00 | 59 | 1006.2 |
| 20260509143020 | 71 | 260 | 0.9 | 3.5 | 0.00 | 0.00 | 0.00 | 57 | 1006.2 |
| 20260509142515 | 70 | 220 | 1.7 | 3.5 | 0.00 | 0.00 | 0.00 | 61 | 1006.2 |